Regional Weather Roundup
Issued by NWS

Home | Current Version | Previous Version | Text Only | Print | Product List | Glossary Off
Versions: 1 2 3 4 5 6 7 8 9 10 11 12 13 14 15 16 17 18 19 20 21 22 23 24 25 26 27 28 29 30 31 32 33 34 35 36 37 38 39 40 41 42 43 44 45 46 47 48 49 50

000
ASUS43 KLOT 171608
RWRIL

ILLINOIS REGIONAL WEATHER ROUNDUP
NATIONAL WEATHER SERVICE CHICAGO/ROMEOVILLE IL
1000 AM CST TUE JAN 17 2017

NOTE: "FAIR" INDICATES FEW OR NO CLOUDS BELOW 12,000 FEET WITH NO
SIGNIFICANT WEATHER AND/OR OBSTRUCTIONS TO VISIBILITY.

* THESE STATIONS ARE NOT UNDER NWS QUALITY CONTROL. THEY ALSO MAY NOT
  REPORT WEATHER SUCH AS PRECIPITATION OR FOG.

ILZ001-002-007-009-015-016-024-171700-
NORTHWEST ILLINOIS

CITY           SKY/WX    TMP DP  RH WIND       PRES   REMARKS
MOLINE         CLOUDY    36  34  92 W12       29.93R FOG     WCI  28
SAVANNA*       CLOUDY    34  34  99 W6        29.92R FOG     WCI  29
$$

ILZ003-004-008-010-011-017-018-171700-
NORTH CENTRAL ILLINOIS

CITY           SKY/WX    TMP DP  RH WIND       PRES   REMARKS
ROCKFORD       CLOUDY    35  34  96 W8        29.91R FOG     WCI  29
FREEPORT*      FOG       34  33  99 W6        29.91R VSB 1/2 WCI  29
ROCHELLE*      FOG       34  34 100 W10       29.91R VSB 1/2 WCI  26
DE KALB*       FOG       35  35  99 W12       29.89R VSB 3/4 WCI  27
$$

ILZ005-006-012>014-019>023-171700-
NORTHEAST ILLINOIS

CITY           SKY/WX    TMP DP  RH WIND       PRES   REMARKS
CHICAGO-OHARE  CLOUDY    37  36  96 W9        29.86R WCI  30
CHICAGO-MIDWAY CLOUDY    35  35 100 W12       29.87R WCI  27
AURORA         NOT AVBL
LANSING*       CLOUDY    38  38 100 W12       29.87R WCI  31
JOLIET*        CLOUDY    37  37 100 W9        29.89S WCI  31
WAUKEGAN       CLOUDY    37  36  96 VRB6      29.84R FOG     WCI  32
DUPAGE AIRPORT CLOUDY    37  34  89 W12       29.87R FOG     WCI  29
KANKAKEE*      FOG       39  39  98 W14       29.90R VSB 3/4 WCI  31
WHEELING       CLOUDY    37  35  92 W9        29.86R WCI  30
MORRIS*        CLOUDY    37  36  97 W13       29.89R WCI  28
ROMEOVILLE*    FOG       35  35 100 W10       29.87S VSB 1/2 WCI  28
NORTHERLY ISL    N/A     38  37  97 W9          N/A  WCI  31
$$

LMZ740>746-171700-
SOUTHERN LAKE MICHIGAN

STATION/POSITION SKY/WX   TEMP    WIND        PRES    VSBY  WAVE
                          AIR SEA DIR/SP/G                  HT/PER
                          (F)     (DEG/KT/KT) (MB)    (MI)  (FT/S)
HARRISON CRIB              39     270/ 12/ 13   N/A
BURNHAM HARBOR             38     270/  8/ 14   N/A
CALUMET HARBOR             39     230/  7/ 12 1010.8R
BURNS HARBOR               38     250/ 10/ 11 1011.9R
$$

ILZ025>027-034>036-040-047-049-050-058-095>099-171700-
WEST-CENTRAL ILLINOIS

CITY           SKY/WX    TMP DP  RH WIND       PRES   REMARKS
QUINCY         CLOUDY    37  35  92 W10       30.00R FOG     WCI  30
GALESBURG*     CLOUDY    34  34 100 W12G18    29.95R FOG     WCI  26
MACOMB*        CLOUDY    35  35 100 W14       30.00R FOG     WCI  26
JACKSONVILLE*  CLOUDY    39  38  94 W17       29.99R WCI  30
PITTSFIELD*    CLOUDY    40  37  92 W14G21    30.01R
$$

ILZ028>032-037-038-041>044-048-051>054-059>061-171700-
CENTRAL ILLINOIS

CITY           SKY/WX    TMP DP  RH WIND       PRES   REMARKS
PONTIAC        CLOUDY    39  39 100 W12       29.93R FOG     WCI  32
BLOOMINGTON    FOG       40  40 100 W16       29.93R VSB 1/2
DECATUR        CLOUDY    42  41  96 W14G21    29.96R
PEORIA         CLOUDY    37  36  96 W13       29.96R WCI  29
LACON*         CLOUDY    37  37 100 W8        29.94R WCI  30
LINCOLN*       CLOUDY    42  42 100 W7        29.96R FOG
SPRINGFIELD    CLOUDY    44  41  89 W16       29.98R
TAYLORVILLE    CLOUDY    42  39  91 W13       29.98S
$$

ILZ033-039-045-046-055>057-062-063-171700-
EAST-CENTRAL ILLINOIS

CITY           SKY/WX    TMP DP  RH WIND       PRES   REMARKS
CHAMPAIGN      CLOUDY    42  40  92 W17       29.95R
RANTOUL*       FOG       43  43  99 W14G21    29.93R VSB 1
MATTOON        CLOUDY    43  40  89 SW12      29.96R
PARIS*         CLOUDY    44  42  93 W13       29.97R
$$

ILZ079-100>102-171700-
SOUTHWEST ILLINOIS

CITY           SKY/WX    TMP DP  RH WIND       PRES   REMARKS
ALTON          CLOUDY    43  39  87 W15       30.01S
BELLEVILLE     CLOUDY    45  43  93 SW13      30.01R
CAHOKIA*       CLOUDY    46  36  68 W12       30.03R
SPARTA*        CLOUDY    42  38  84 W9        30.05R
$$

ILZ064>066-069>071-074>076-080>082-084>086-088>090-092>094-171700-
SOUTH-CENTRAL ILLINOIS

CITY           SKY/WX    TMP DP  RH WIND       PRES   REMARKS
CARBONDALE     NOT AVBL
CAIRO*         CLOUDY    45  41  85 SW9       30.07S
EFFINGHAM*     CLOUDY    44  42  92 SW13      30.01R
MARION         CLOUDY    46  43  87 NW12      30.06R
MT. VERNON     CLOUDY    46  40  79 W8        30.02R
CENTRALIA*     CLOUDY    46  42  86 W9        30.02R
SALEM*         CLOUDY    46  40  81 W12       30.02R
METROPOLIS*    CLOUDY    47  42  80 SW9       30.07R
$$

ILZ067-068-072-073-078-083-087-091-171700-
SOUTHEAST ILLINOIS

CITY           SKY/WX    TMP DP  RH WIND       PRES   REMARKS
LAWRENCEVILLE  CLOUDY    47  42  83 W13       30.01R
FLORA*         CLOUDY    46  40  80 W10       30.02R
FAIRFIELD*     CLOUDY    46  40  80 W3        30.02R
HARRISBURG*    CLOUDY    46  42  85 W12       30.05R
ROBINSON*      CLOUDY    45  41  84 W10       30.00R
CARMI*         CLOUDY    46  42  85 W9        30.03R
$$

ABBREVIATIONS USED IN REMARKS
   TC - TEMPERATURE IN CELSIUS
  WCI - WIND CHILL INDEX
   HX - HEAT INDEX
  VSB - VISIBILITY
$$





USA.gov is the U.S. government's official web portal to all federal, state and local government web resources and services.